Regional Weather Roundup
Issued by NWS Cleveland, OH

Home | Current Version | Previous Version | Graphics & Text | Print | Product List | Glossary On
Versions: 1 2 3 4 5 6 7 8 9 10 11 12 13 14 15 16 17 18 19 20 21 22 23 24 25 26 27 28 29 30 31 32 33 34 35 36 37 38 39 40 41 42 43 44 45 46 47 48 49 50
000
ASUS41 KCLE 230412
RWRCLE
OHIO REGIONAL WEATHER ROUNDUP
NATIONAL WEATHER SERVICE WILMINGTON, OH
1200 AM EDT WED AUG 23 2017

NOTE: "FAIR" INDICATES FEW OR NO CLOUDS BELOW 12,000 FEET WITH NO
SIGNIFICANT WEATHER AND/OR OBSTRUCTIONS TO VISIBILITY.

OHZ001>008-015>018-024>027-034-035-043-044-230500-
   NORTHWEST OHIO

CITY           SKY/WX    TMP DP  RH WIND       PRES   REMARKS
DEFIANCE       FAIR      61  53  75 CALM      29.95S
FINDLAY        FAIR      63  54  72 W5        29.93R
TOLEDO EXPRESS FAIR      62  55  77 W6        29.92S
TOLEDO EXEC    FAIR      63  55  75 NW7       29.93R
LIMA           FAIR      63  58  83 NW6       29.96R
$$

OHZ009>014-019>023-028>033-038-089-230500-
   NORTHEAST OHIO

CITY           SKY/WX    TMP DP  RH WIND       PRES   REMARKS
CLE-HOPKINS    MOCLDY    69  64  84 N6        29.90R
CLE-LAKEFRONT  MOCLDY    72  60  66 N13       29.87R
CUY CO. ARPT   NOT AVBL
LORAIN-ELYRIA  MOCLDY    67  60  78 W7        29.90R
ASHTABULA      CLOUDY    67  60  78 N3        29.89R
AKRON-CANTON   MOCLDY    68  65  90 W5        29.89S
WOOSTER        FAIR      66  64  93 NW9       29.90F
MANSFIELD      FAIR      65  63  93 W7        29.92S
YOUNGSTOWN     MOCLDY    66  64  93 NW6       29.88R
$$

OHZ042-051>053-060>062-070>072-077>081-230500-
  SOUTHWEST OHIO

CITY           SKY/WX    TMP DP  RH WIND       PRES   REMARKS
CINC-COVINGTON MOCLDY    71  71 100 W8        29.96R
CINC-LUNKEN    CLOUDY    72  70  93 NW3       29.95R
HAMILTON       MOCLDY    73  66  78 NW8       29.96R
DAYTON         FAIR      67  63  87 NW8       29.97R
WRIGHT-PAT AFB FAIR      70  64  80 NW7       29.95R
DAYTON GENERAL FAIR      71  64  78 NW6       29.95R
WILMINGTON     FAIR      71  66  84 NW8       29.95R
$$

OHZ036-037-039>041-045>050-054>059-063>069-073>076-082>088-230500-
  CENTRAL AND SOUTHEAST OHIO

CITY           SKY/WX    TMP DP  RH WIND       PRES   REMARKS
COLUMBUS       MOCLDY    73  63  70 NW14      29.92R
OSU AIRPORT    CLOUDY    71  64  78 NW10      29.93R
BOLTON FIELD   FAIR      69  66  90 NW5       29.94R
RICKENBACK AFB MOCLDY    70  67  90 NW3       29.92R
NEWARK         MOCLDY    71  66  84 NW5       29.91S
MARION         FAIR      65  60  84 NW7       29.94R
LANCASTER      FAIR      71  67  87 W3        29.92R
ZANESVILLE     MOCLDY    72  67  84 NW6       29.90S
NEW PHILLY     CLOUDY    70  64  81 NW5       29.89F
$$




USA.gov is the U.S. government's official web portal to all federal, state and local government web resources and services.